Location: Unspecified
(0.0000°N, 0.0000°E)
Time: 12:33:40
(UTC+02:00)

Cosmos 1933 - Visible Passes

Search period start: 25 April 2017 00:00
Search period end: 05 May 2017 00:00
Orbit: 548 x 566 km, 82.5° (Epoch: 23 April)

Date Brightness Start Highest point End Pass type
(mag) Time Alt. Az. Time Alt. Az. Time Alt. Az.
28 Apr 4.6 21:33:18 30° NNE 21:33:18 30° NNE 21:35:26 10° N visible
29 Apr 3.2 21:27:43 37° S 21:29:17 87° E 21:33:18 10° N visible
30 Apr 3.4 21:23:04 10° S 21:27:08 76° W 21:31:09 10° N visible
01 May 3.8 21:20:58 10° SSW 21:24:59 61° W 21:28:57 10° N visible
02 May 4.3 21:18:55 10° SSW 21:22:50 49° W 21:26:43 10° N visible
03 May 4.7 21:16:53 10° SSW 21:20:41 39° W 21:24:27 10° NNW visible
04 May 5.2 21:14:54 10° SSW 21:18:32 32° W 21:22:08 10° NNW visible
